Skip Page Navigation
NASA JPL Caltech
NASA Logo - Jet Propulsion Laboratory + View the NASA Portal
+ Center for Near-Earth Object Studies
JPL Home Earth Solar System Stars & Galaxies Technology
JPL Solar System Dynamics
BODIES ORBITS EPHEMERIDES TOOLS PHYSICAL DATA DISCOVERY FAQ SITE MAP
JPL Small-Body Database Browser
Search: [ help ]  
283140 (2008 YX24)
Classification: Main-belt Asteroid          SPK-ID: 2283140
Ephemeris | Orbit Diagram | Orbital Elements | Mission Design | Physical Parameters | Discovery Circumstances ]

[ hide orbit diagram ]

For accurate long-term ephemerides, please instead use our Horizons system.This orbit viewer was implemented using two-body methods, and hence should not be used for determining accurate long-term trajectories (over several years or decades) or planetary encounter circumstances.


[ revert to old Java-based viewer ]

Orbital Elements at Epoch 2459000.5 (2020-May-31.0) TDB
Reference: JPL 6 (heliocentric ecliptic J2000)
 Element Value Uncertainty (1-sigma)   Units 
e .1506247467122219 1.187e-07  
a 2.581983682178044 3.318e-08 au
q 2.193073044034886 3.1478e-07 au
i 13.81040239660269 1.3214e-05 deg
node 265.0934981333226 3.2493e-05 deg
peri 153.6641021765573 5.2523e-05 deg
M 303.709514816186 3.0927e-05 deg
tp 2459237.452425154419
(2021-Jan-22.95242515)
0.00012951 TDB
period 1515.404828667547
4.15
2.9211e-05
7.998e-08
d
yr
n .2375602830278282 4.5792e-09 deg/d
Q 2.970894320321202 3.8178e-08 au
  Orbit Determination Parameters
   # obs. used (total)      182  
   data-arc span      6750 days (18.48 yr)  
   first obs. used      1999-10-03  
   last obs. used      2018-03-27  
   planetary ephem.      DE431  
   SB-pert. ephem.      SB431-N16  
   condition code      0  
   norm. resid. RMS      .55922  
   source      ORB  
   producer      Otto Matic  
   solution date      2018-Apr-05 16:21:45  

Additional Information
 Earth MOID = 1.21451 au 
 Jupiter MOID = 2.35241 au 
 T_jup = 3.368 
[ show covariance matrix ]

Ephemeris | Orbit Diagram | Orbital Elements | Mission Design | Physical Parameters | Discovery Circumstances ]

Physical Parameter Table
Parameter Symbol Value Units Sigma Reference Notes
absolute magnitude H 16.1   n/a MPO396939  

283140 (2008 YX24)          Discovered 2008-Dec-28 by Lowe, A. at Mayhill
Reference: 20110715/Numbers.arcLast Updated: 2011-07-20
Ephemeris | Orbit Diagram | Orbital Elements | Mission Design | Physical Parameters | Discovery Circumstances ]
ABOUT SSD CREDITS/AWARDS PRIVACY/COPYRIGHT GLOSSARY LINKS
FirstGov 2020-Aug-14 03:46 UT
(server date/time)  
NASA Home Page
Site Manager:   Ryan S. Park
Webmaster  Alan B. Chamberlin